Weather History for Marion Regional, IL

Change the Weather History Date:

Wednesday, May 9, 2012

  Actual Average Record
Temperature  
Mean Temperature 63 °F -  
Max Temperature 73 °F 73 °F 88 °F (1986)
Min Temperature 53 °F 49 °F 33 °F (1980)
Degree Days  
Heating Degree Days 2    
Growing Degree Days 13 (Base 50)    
Moisture  
Dew Point 47 °F    
Average Humidity 64    
Maximum Humidity 94    
Minimum Humidity 29    
Precipitation  
Precipitation 0.00 in - - ()
Sea Level Pressure  
Sea Level Pressure 29.96 in    
Wind  
Wind Speed 3 mph (WNW)    
Max Wind Speed 16 mph    
Max Gust Speed -    
Visibility 12 miles    
Events      
Averages and records for this station are not official NWS values.
T = Trace of Precipitation, MM = Missing Value Source: NWS Daily Summary

Daily Weather History Graph

Daily Weather History Graph

Search for Another Location

Airport:

Trip Planner

Search our weather history database for the weather conditions in past years. The results will help you decide how hot, cold, wet, or windy it might be!

Date:

Astronomy

May. 09, 2012 Rise Set
Actual Time 5:51 AM CDT 7:54 PM CDT
Civil Twilight 5:22 AM CDT 8:23 PM CDT
Nautical Twilight 4:47 AM CDT 8:58 PM CDT
Astronomical Twilight 4:09 AM CDT 9:36 PM CDT
Moon 11:53 PM CDT (5/9) 9:07 AM CDT (5/9)
Length of Visible Light 15h 00m
Length of Day
14h 02m
Waning Gibbous, 82% of the Moon is Illuminated
May 9
Waning Gibbous
May 12
Last Quarter
May 20
New
May 28
First Quarter
Jun 4
Full

Hourly Weather History & Observations

Time (CDT) Temp. Dew Point Humidity Pressure Visibility Wind Dir Wind Speed Gust Speed Precip Events Conditions
12:15 AM 59.0 °F 50.0 °F 72% 29.98 in 10.0 mi SSW 3.5 mph - N/A   Scattered Clouds
12:35 AM 59.0 °F 51.8 °F 77% 29.99 in 10.0 mi Calm Calm - N/A   Mostly Cloudy
12:55 AM 59.0 °F 51.8 °F 77% 29.99 in 10.0 mi SW 3.5 mph - N/A   Scattered Clouds
1:15 AM 60.8 °F 50.0 °F 68% 29.98 in 10.0 mi Calm Calm - N/A   Clear
1:35 AM 60.8 °F 50.0 °F 68% 29.98 in 10.0 mi WSW 3.5 mph - N/A   Clear
1:55 AM 59.0 °F 50.0 °F 72% 29.97 in 10.0 mi WSW 3.5 mph - N/A   Clear
2:15 AM 59.0 °F 50.0 °F 72% 29.97 in 10.0 mi WSW 3.5 mph - N/A   Clear
2:35 AM 59.0 °F 50.0 °F 72% 29.97 in 10.0 mi WSW 3.5 mph - N/A   Clear
2:55 AM 57.2 °F 50.0 °F 77% 29.96 in 10.0 mi WSW 3.5 mph - N/A   Clear
3:15 AM 55.4 °F 51.8 °F 88% 29.96 in 10.0 mi Calm Calm - N/A   Clear
3:35 AM 55.4 °F 51.8 °F 88% 29.96 in 10.0 mi Calm Calm - N/A   Clear
3:55 AM 55.4 °F 51.8 °F 88% 29.96 in 10.0 mi Calm Calm - N/A   Clear
4:15 AM 53.6 °F 51.8 °F 94% 29.96 in 10.0 mi Calm Calm - N/A   Clear
4:35 AM 53.6 °F 51.8 °F 94% 29.95 in 10.0 mi Calm Calm - N/A   Clear
4:55 AM 53.6 °F 51.8 °F 94% 29.96 in 10.0 mi WSW 3.5 mph - N/A   Scattered Clouds
5:15 AM 53.6 °F 51.8 °F 94% 29.96 in 10.0 mi Calm Calm - N/A   Scattered Clouds
5:35 AM 53.6 °F 51.8 °F 94% 29.97 in 10.0 mi Calm Calm - N/A   Clear
5:55 AM 53.6 °F 51.8 °F 94% 29.97 in 10.0 mi Calm Calm - N/A   Scattered Clouds
6:15 AM 53.6 °F 51.8 °F 94% 29.97 in 10.0 mi Calm Calm - N/A   Scattered Clouds
6:35 AM 53.6 °F 51.8 °F 94% 29.97 in 10.0 mi Calm Calm - N/A   Scattered Clouds
6:55 AM 55.4 °F 51.8 °F 88% 29.98 in 20.0 mi WNW 5.8 mph - N/A   Scattered Clouds
7:55 AM 60.8 °F 50.0 °F 68% 29.99 in 20.0 mi NNW 9.2 mph - N/A   Partly Cloudy
8:55 AM 64.4 °F 46.4 °F 52% 30.00 in 20.0 mi NNW 9.2 mph - N/A   Clear
9:55 AM 66.2 °F 44.6 °F 46% 30.00 in 20.0 mi NW 6.9 mph - N/A   Clear
10:55 AM 69.8 °F 42.8 °F 38% 30.00 in 20.0 mi WNW 16.1 mph - N/A   Clear
11:55 AM 71.6 °F 39.2 °F 31% 29.99 in 20.0 mi WNW 11.5 mph - N/A   Scattered Clouds
12:56 PM 73.4 °F 41.0 °F 31% 29.97 in 20.0 mi West 13.8 mph - N/A   Scattered Clouds
1:58 PM 73.4 °F 39.2 °F 29% 29.95 in 20.0 mi NW 11.5 mph - N/A   Scattered Clouds
3:53 PM 71.6 °F 39.2 °F 31% 29.94 in 20.0 mi North 15.0 mph - N/A   Mostly Cloudy
4:51 PM 71.6 °F 41.0 °F 33% 29.93 in 20.0 mi WNW 11.5 mph - N/A   Mostly Cloudy
5:56 PM 71.6 °F 39.2 °F 31% 29.94 in 20.0 mi NW 6.9 mph - N/A   Mostly Cloudy
6:35 PM 69.8 °F 39.2 °F 33% 29.94 in 10.0 mi NW 6.9 mph - N/A   Mostly Cloudy
6:55 PM 69.8 °F 41.0 °F 35% 29.94 in 10.0 mi North 8.1 mph - N/A   Overcast
7:15 PM 68.0 °F 41.0 °F 37% 29.94 in 10.0 mi North 8.1 mph - N/A   Scattered Clouds
7:35 PM 66.2 °F 42.8 °F 43% 29.94 in 10.0 mi Calm Calm - N/A   Clear
7:55 PM 64.4 °F 42.8 °F 45% 29.94 in 10.0 mi Calm Calm - N/A   Clear
8:15 PM 62.6 °F 44.6 °F 52% 29.94 in 10.0 mi Calm Calm - N/A   Clear
8:35 PM 60.8 °F 46.4 °F 59% 29.95 in 10.0 mi Calm Calm - N/A   Clear
8:55 PM 59.0 °F 46.4 °F 63% 29.95 in 10.0 mi Calm Calm - N/A   Clear
9:15 PM 59.0 °F 44.6 °F 59% 29.95 in 10.0 mi Calm Calm - N/A   Clear
9:35 PM 57.2 °F 44.6 °F 63% 29.96 in 10.0 mi Calm Calm - N/A   Clear
9:55 PM 59.0 °F 44.6 °F 59% 29.96 in 10.0 mi Calm Calm - N/A   Clear
10:15 PM 59.0 °F 44.6 °F 59% 29.96 in 10.0 mi Calm Calm - N/A   Clear
10:35 PM 57.2 °F 44.6 °F 63% 29.97 in 10.0 mi Calm Calm - N/A   Clear
10:55 PM 59.0 °F 44.6 °F 59% 29.96 in 10.0 mi Calm Calm - N/A   Clear
11:15 PM 57.2 °F 46.4 °F 67% 29.96 in 10.0 mi Calm Calm - N/A   Clear
11:35 PM 55.4 °F 46.4 °F 72% 29.96 in 10.0 mi Calm Calm - N/A   Clear
11:55 PM 53.6 °F 46.4 °F 77% 29.96 in 10.0 mi Calm Calm - N/A   Clear